DW4230 Weather Reports


time (UTC)temp
F
wind
direction
speed
knots
gust
knots
rain 1hr
in
rain 24hr
in
rain mn
in
humidity
%
barometer
mb
20260505121600 54 268 6.1 13.9 0.00 0.00 0.00 86 1012.3
20260505120006 54 124 5.2 13.9 0.00 0.00 0.00 87 1012.3
20260505114557 54 124 7.0 13.9 0.00 0.00 0.00 86 1012.4
20260505113058 54 124 7.0 13.9 0.00 0.00 0.00 87 1012.3
20260505111548 54 124 9.6 14.8 0.00 0.00 0.00 87 1012.3
20260505101554 52 124 6.1 11.3 0.00 0.00 0.00 89 1012.0
20260505100050 52 124 5.2 10.4 0.00 0.00 0.00 89 1011.8
20260505094554 51 124 6.1 10.4 0.00 0.00 0.00 89 1011.9
20260505093033 51 124 6.1 12.2 0.00 0.00 0.00 89 1012.0
20260505091555 51 124 5.2 8.7 0.00 0.00 0.00 89 1011.9
20260505090048 51 124 4.3 9.6 0.00 0.00 0.00 90 1011.9
20260505084554 51 124 5.2 10.4 0.00 0.00 0.00 90 1011.9
20260505083050 51 124 5.2 9.6 0.00 0.00 0.00 90 1011.9
20260505081523 51 124 4.3 8.7 0.00 0.00 0.00 90 1012.0
20260505080013 51 262 5.2 10.4 0.00 0.00 0.00 90 1012.0
20260505074505 51 124 5.2 12.2 0.00 0.00 0.00 89 1012.1
20260505073036 52 266 8.7 13.9 0.00 0.00 0.00 89 1012.0
20260505071536 52 269 7.0 15.6 0.00 0.00 0.00 89 1011.9
20260505070050 52 124 7.0 14.8 0.00 0.00 0.00 89 1012.0
20260505064512 52 272 8.7 15.6 0.00 0.00 0.00 89 1012.0
20260505063053 51 266 8.7 16.5 0.00 0.00 0.00 90 1012.0
20260505061523 51 250 6.1 13.9 0.00 0.00 0.00 90 1012.0
20260505060106 51 272 7.8 15.6 0.00 0.00 0.00 90 1012.0
20260505054607 51 275 6.1 13.0 0.00 0.00 0.00 90 1012.1
20260505053102 51 262 7.0 13.9 0.00 0.00 0.00 90 1012.1
20260505051554 52 239 7.0 16.5 0.00 0.00 0.00 89 1012.1
20260505041550 51 124 6.1 12.2 0.00 0.00 0.00 89 1012.4
20260505040033 51 267 6.1 12.2 0.00 0.00 0.00 89 1012.5
20260505034515 51 124 7.0 12.2 0.00 0.00 0.00 89 1012.7
20260505033009 51 258 5.2 13.0 0.00 0.00 0.00 89 1012.8
20260505031539 51 273 5.2 13.9 0.00 0.00 0.00 88 1012.8
20260505030048 52 277 7.0 12.2 0.00 0.00 0.00 88 1012.9
20260505024607 52 124 7.0 12.2 0.00 0.00 0.00 88 1012.8
20260505023054 52 268 7.0 15.6 0.00 0.00 0.00 87 1012.9
20260505021521 52 269 8.7 18.2 0.00 0.00 0.00 86 1013.1
20260505020006 52 266 7.8 15.6 0.00 0.00 0.00 86 1012.7
20260505014512 52 124 7.8 17.4 0.00 0.00 0.00 85 1012.7
20260505013015 52 124 7.0 17.4 0.00 0.00 0.00 85 1012.3
20260505011517 53 124 8.7 16.5 0.00 0.00 0.00 84 1012.3
20260505010052 53 252 7.8 16.5 0.00 0.00 0.00 84 1012.1
20260505004547 53 124 8.7 17.4 0.00 0.00 0.00 83 1011.8
20260505003040 53 124 8.7 20.9 0.00 0.00 0.00 82 1011.8
20260505001543 53 124 9.6 18.2 0.00 0.00 0.00 81 1011.2
20260505000048 53 281 9.6 19.1 0.00 0.00 0.00 81 1010.9
20260504234501 53 260 8.7 15.6 0.00 0.00 0.00 81 1010.9
20260504233112 53 279 9.6 20.9 0.00 0.00 0.00 82 1010.9
20260504231504 53 272 9.6 18.2 0.00 0.00 0.00 81 1010.9
20260504230013 53 270 10.4 17.4 0.00 0.00 0.00 81 1010.8
20260504224504 54 239 10.4 18.2 0.00 0.00 0.00 80 1010.7
20260504223022 54 124 9.6 19.1 0.00 0.00 0.00 79 1010.8
20260504221501 54 124 8.7 17.4 0.00 0.00 0.00 80 1010.8
20260504220058 54 243 11.3 20.0 0.00 0.00 0.00 79 1010.7
20260504214511 54 124 10.4 20.0 0.00 0.00 0.00 80 1010.7
20260504213019 55 257 13.0 19.1 0.00 0.00 0.00 78 1010.6
20260504211524 55 275 8.7 20.9 0.00 0.00 0.00 78 1010.7
20260504210025 55 252 12.2 20.0 0.00 0.00 0.00 77 1010.6
20260504204543 55 124 10.4 20.9 0.00 0.00 0.00 76 1010.6
20260504203010 56 261 8.7 17.4 0.00 0.00 0.00 74 1010.4
20260504201520 56 124 9.6 20.9 0.00 0.00 0.00 75 1010.4
20260504200033 56 124 14.8 26.9 0.00 0.00 0.00 73 1010.2
20260504194516 56 124 10.4 23.5 0.00 0.00 0.00 73 1010.3
20260504193038 56 291 8.7 20.0 0.00 0.00 0.00 76 1010.6
20260504191516 56 245 10.4 20.0 0.00 0.00 0.00 78 1010.8
20260504190028 55 267 11.3 24.3 0.00 0.00 0.00 77 1011.0
20260504184516 56 235 10.4 21.7 0.00 0.00 0.00 77 1010.9
20260504183008 56 270 10.4 22.6 0.00 0.00 0.00 76 1010.9
20260504181513 56 242 13.0 25.2 0.00 0.00 0.00 76 1010.8
20260504180003 55 273 8.7 21.7 0.00 0.00 0.00 78 1010.7
20260504174619 55 250 13.9 26.9 0.00 0.00 0.00 79 1010.8
20260504173048 55 124 10.4 22.6 0.00 0.00 0.00 79 1010.8
20260504171527 55 124 13.0 22.6 0.00 0.00 0.00 78 1010.7